Simultaneous Nadir Overpasses (SNOs) Predictions

Prediction of SNOs between GOES-15 and METOP-B Satellite Orbit:

Table of predicted SNOs for the next 14.0 days since TLE Epoch: 1/26/2017
Index Date Time (GOES-15) GOES-15 Lat,Lon METOP-B Lat,Lon Distance(km) Time Diff (sec)
1 01/27/2017 06:15:07 -0.00,-135.28 0.88,-131.32 450.92 80
2 01/28/2017 18:36:39 0.02,-135.27 0.13,-135.88 68.84 80
3 01/31/2017 06:34:58 -0.02,-135.35 -0.04,-135.47 14.41 80
4 02/02/2017 18:30:28 0.03,-135.34 -0.05,-135.03 35.44 80
5 02/04/2017 06:52:08 -0.03,-135.39 -0.95,-139.63 482.55 80
6 02/05/2017 06:28:47 -0.02,-135.40 0.14,-134.63 87.46 80
7 02/06/2017 18:50:19 0.03,-135.37 0.86,-139.19 434.72 80
8 02/07/2017 18:26:58 0.03,-135.37 -0.24,-134.19 134.91 80
9 02/09/2017 06:48:37 -0.03,-135.41 -0.76,-138.78 384.20 80




NCC Satellite Simultaneous Nadir Overpasses (SNOs) Prediction Service
